Regional Weather Roundup
Issued by NWS

Home | Current Version | Previous Version | Text Only | Print | Product List | Glossary On
Versions: 1 2 3 4 5 6 7 8 9 10 11 12 13 14 15 16 17 18 19 20 21 22 23 24 25 26 27 28 29 30 31 32 33 34 35 36 37 38 39 40 41 42 43 44 45 46 47 48 49 50
000
ASUS43 KDMX 212007
RWRIA

WEATHER ROUNDUP FOR IOWA
NATIONAL WEATHER SERVICE DES MOINES IA
200 PM CST SUN DEC 21 2014

NOTE: "FAIR" INDICATES FEW OR NO CLOUDS BELOW 12,000 FEET WITH NO
SIGNIFICANT WEATHER AND/OR OBSTRUCTIONS TO VISIBILITY.

* - THESE STATIONS ARE NOT NWS STATIONS...THUS NOT UNDER NWS
QUALITY CONTROL.  THEY ALSO DO NOT REPORT WEATHER SUCH
AS PRECIPITATION OR FOG.

IAZ001>003-012>014-020>022-031>034-043>046-212100-
   NORTHWEST IOWA

CITY           SKY/WX    TMP DP  RH WIND       PRES   REMARKS
CARROLL *      CLOUDY    39  39 100 S20G32    29.75F WCI  30
CHEROKEE *     CLOUDY    39  39 100 S15G22    29.70S FOG     WCI  31
DENISON *      CLOUDY    39  39 100 S21G29    29.72F FOG     WCI  29
LE MARS *      CLOUDY    41  39  93 S18G28    29.67F
ORANGE CITY *  CLOUDY    39  37  93 S17G25    29.67S FOG     WCI  30
SHELDON *      CLOUDY    39  39 100 S17G23    29.66S FOG     WCI  30
SIOUX CITY     CLOUDY    42  37  82 S18G24    29.70F
SPENCER        CLOUDY    38  36  92 S16       29.69F FOG     WCI  29
STORM LAKE *   FOG       37  37 100 S20G25    29.69F VSB 3/4 WCI  27
$$

IAZ055>058-069>071-079>083-090>094-212100-
   SOUTHWEST IOWA

CITY           SKY/WX    TMP DP  RH WIND       PRES   REMARKS
ATLANTIC *     CLOUDY    41  39  93 S17G25    29.78F
AUDUBON *      SUNNY     39  34  81 S16G22    29.78F HAZE    WCI  30
CLARINDA *     CLOUDY    41  39  93 S15       29.83F
COUNCIL BLFS * CLOUDY    41  41 100 S14G22    29.74F
CRESTON *      CLOUDY    39  39 100 S16G22    29.82F WCI  30
HARLAN  *      CLOUDY    39  39 100 S20G26    29.79F FOG     WCI  30
LAMONI         CLOUDY    40  38  93 S13       29.85F WCI  32
RED OAK *      CLOUDY    41  39  93 S15G21    29.79F FOG
SHENANDOAH *   CLOUDY    41  39  93 S13G22    29.81F
$$

IAZ047>049-059>061-072>074-084-212100-
   CENTRAL IOWA

CITY           SKY/WX    TMP DP  RH WIND       PRES   REMARKS
AMES           CLOUDY    40  35  83 S15G23    29.82F WCI  32
ANKENY *       CLOUDY    41  36  81 S21       29.83F
CHARITON *     CLOUDY    41  39  93 S14       29.86F FOG
DES MOINES     CLOUDY    42  35  76 S21G26    29.84F
GRINNELL*      CLOUDY    39  37  93 S13       29.87F FOG     WCI  32
KNOXVILLE *    CLOUDY    41  39  93 S14       29.85F FOG
MARSHALLTOWN   CLOUDY    40  36  86 S17       29.84F WCI  31
PELLA *        CLOUDY    41  39  93 S14       29.88F FOG
PERRY *        CLOUDY    41  37  87 S21       29.80F
$$

IAZ004>006-015-016-023>025-035-036-212100-
   NORTH CENTRAL IOWA

CITY           SKY/WX    TMP DP  RH WIND       PRES   REMARKS
ALGONA *       FOG       37  37 100 S24G31    29.73F VSB 3/4 WCI  26
CLARION *      CLOUDY    37  37 100 S15       29.80R FOG     WCI  28
ESTHERVILLE    CLOUDY    36  36 100 S20       29.70S FOG     WCI  25
FORT DODGE *   CLOUDY    37  34  87 S15G23    29.78F WCI  28
MASON CITY     CLOUDY    37  35  92 S17G26    29.80F FOG     WCI  27
FOREST CITY *  CLOUDY    36  36 100 S15       29.77F FOG     WCI  26
IOWA FALLS *   CLOUDY    39  36  87 S22G28    29.81F WCI  29
$$

IAZ007>011-017>019-026>030-037>042-050>054-066-212100-
   NORTHEAST IOWA

CITY           SKY/WX    TMP DP  RH WIND       PRES   REMARKS
CEDAR RAPIDS   CLOUDY    39  36  89 S16G23    29.90F WCI  30
CHARLES CITY * CLOUDY    37  37 100 S18G25    29.83S FOG     WCI  27
CLINTON *      CLOUDY    37  34  87 S13       30.01F WCI  29
DECORAH *      CLOUDY    37  36  93 S15G23    29.85F FOG     WCI  28
DUBUQUE        CLOUDY    36  33  89 S15       29.94F FOG     WCI  27
MONTICELLO *   CLOUDY    37  37 100 SE14      29.94F WCI  29
OELWEIN *      CLOUDY    37  36  93 S17G24    29.87F FOG     WCI  28
WATERLOO       CLOUDY    38  37  97 S16       29.85F FOG     WCI  29
$$

IAZ064-065-067-068-078-212100-
   EAST CENTRAL IOWA

CITY           SKY/WX    TMP DP  RH WIND       PRES   REMARKS
DAVENPORT      CLOUDY    39  32  76 S13       29.99F WCI  31
IOWA CITY      CLOUDY    40  36  86 S12       29.95F WCI  33
MT. PLEASANT * CLOUDY    41  36  81 SE15      29.95F
MUSCATINE *    CLOUDY    41  36  81 SE10      29.97F
QUAD CITIES    CLOUDY    41  33  73 S12       29.99F
$$

IAZ062-063-075>077-085>089-095>099-212100-
   SOUTHEAST IOWA

CITY           SKY/WX    TMP DP  RH WIND       PRES   REMARKS
BURLINGTON     CLOUDY    42  35  76 S10       29.96F
FAIRFIELD *    CLOUDY    41  36  81 S17       29.93F
FORT MADISON * CLOUDY    45  39  81 SE13G18   29.96F
KEOKUK *       CLOUDY    45  37  76 S13G18    29.95F
OSKALOOSA *    CLOUDY    41  37  87 S14       29.90F
CENTERVILLE *  CLOUDY    41  39  93 S10       29.90F
OTTUMWA        CLOUDY    42  36  79 S15       29.90F
WASHINGTON *   CLOUDY    41  41 100 SE10      29.94F
$$

ABBREVIATIONS USED IN REMARKS
   TC - TEMPERATURES IN CELSIUS
  WCI - WIND CHILL INDEX
   HX - HEAT INDEX
  VSB - VISIBILITY
$$



USA.gov is the U.S. government's official web portal to all federal, state and local government web resources and services.